This is the latest recevied weather packets stored in our database for station/object DC0VZ-6. If no packets are shown the sender has not sent any weather packets the latest 10 day(s).
| Time | Temp. | Humidity | Pressure | Rain* | Wind** | Luminosity | Snow |
|---|---|---|---|---|---|---|---|
| 1787736372 | 24.44° C | 56% | 984.8 hPa | 0 mm | - | - | - |
| 1787735772 | 22.78° C | 59% | 984.7 hPa | 0 mm | - | - | - |
| 1787735172 | 22.78° C | 60% | 984.7 hPa | 0 mm | - | - | - |
| 1787734571 | 22.78° C | 61% | 984.7 hPa | 0 mm | - | - | - |
| 1787733971 | 20.56° C | 58% | 984.7 hPa | 0 mm | - | - | - |
| 1787733371 | 20.56° C | 58% | 984.6 hPa | 0 mm | - | - | - |
| 1787732771 | 20.56° C | 59% | 984.6 hPa | 0 mm | - | - | - |
| 1787732171 | 20° C | 58% | 984.6 hPa | 0 mm | - | - | - |
| 1787731572 | 20° C | 58% | 984.6 hPa | 0 mm | - | - | - |
| 1787730971 | 19.44° C | 59% | 984.4 hPa | 0 mm | - | - | - |
| 1787730371 | 18.33° C | 59% | 984.4 hPa | 0 mm | - | - | - |
| 1787729771 | 18.33° C | 58% | 984 hPa | 0 mm | - | - | - |
| 1787729171 | 18.33° C | 59% | 984 hPa | 0 mm | - | - | - |
| 1787728571 | 18.33° C | 59% | 984.1 hPa | 0 mm | - | - | - |
| 1787727971 | 17.78° C | 59% | 984.1 hPa | 0 mm | - | - | - |
| 1787727371 | 17.78° C | 59% | 983.9 hPa | 0 mm | - | - | - |
| 1787726771 | 17.78° C | 59% | 983.9 hPa | 0 mm | - | - | - |
| 1787726171 | 17.22° C | 58% | 983.8 hPa | 0 mm | - | - | - |
| 1787725571 | 16.67° C | 59% | 983.8 hPa | 0 mm | - | - | - |
| 1787724971 | 16.67° C | 59% | 983.9 hPa | 0 mm | - | - | - |
| 1787724371 | 16.67° C | 58% | 983.9 hPa | 0 mm | - | - | - |
| 1787723771 | 16.67° C | 58% | 983.4 hPa | 0 mm | - | - | - |
| 1787723171 | 16.11° C | 58% | 983.4 hPa | 0 mm | - | - | - |
| 1787722571 | 16.11° C | 58% | 983.6 hPa | 0 mm | - | - | - |
| 1787721970 | 16.11° C | 58% | 983.6 hPa | 0 mm | - | - | - |
* Rain latest hour (hover to see other rain measurements)
** Current wind speed in m/s (hover to see current wind gust speed)